Regional Weather Roundup
Issued by NWS Midland/Odessa, TX

Skip options and go directly to product.
Home | Oldest Version | Next Version | Current Version | All | Text Only | Save Text | Print | Product List | Glossary On

Skip product version selection by date and time.   
194
ASUS44 KMAF 231610
RWRMAF
MIDLAND AREA WEATHER ROUNDUP
NATIONAL WEATHER SERVICE MIDLAND TX
1100 AM CDT WED APR 23 2014

...IN SOUTHWEST TEXAS AND SOUTHEAST NEW MEXICO...

CITY           SKY/WX    TMP DP  RH WIND       PRES   REMARKS
ALPINE         SUNNY     78  39  24 SW24G30   30.00S
ANDREWS        FAIR      76  53  43 S17G28    29.85F
ARTESIA        CLOUDY    72  45  37 S10       29.85S
BIG SPRING     MOSUNNY   79  58  48 S24       29.89S
CARLSBAD       CLOUDY    74  47  38 S9        29.84S
DRYDEN           N/A     79  57  46 VRB3      29.86F
FORT STOCKTON  SUNNY     85  44  23 W16G26    29.86S
GUAD PASS      CLOUDY    69  29  22 SW23G30   29.98S
HOBBS          SUNNY     73  50  43 S16       29.87S
MARFA          SUNNY     75  43  31 S15       30.00S
MIDLAND AIRPK  MOSUNNY   79  56  44 S21       29.86F
MIDLAND INTL   MOSUNNY   79  55  43 S22G29    29.85F
ODESSA           N/A    N/A N/A N/A MISG      29.86F
PECOS          SUNNY     78  53  42 S5        29.83F
PRESIDIO       FAIR      84  30  14 SW7       29.88S
SEMINOLE       MOSUNNY   77  51  41 S20       29.86F
SNYDER         PTSUNNY   74  60  60 S23       29.87F
WINK           MOSUNNY   79  52  38 S14       29.83S
$$
...OTHER STATIONS IN TEXAS...

CITY           SKY/WX    TMP DP  RH WIND       PRES   REMARKS
ABILENE        LGT RAIN  79  60  52 S21G31    29.87F
AMARILLO       CLOUDY    73  51  46 S33G41    29.82F
AUSTIN         SUNNY     78  65  63 S13G20    29.93F
BROWNSVILLE    SUNNY     81  67  62 S15       29.93S
CORPUS CHRISTI MOSUNNY   82  66  58 SE16G23   29.93F
DALLAS FTW     MOSUNNY   79  61  53 S20       29.92F
DEL RIO        SUNNY     80  66  62 SE15      29.86S
EL PASO        PTSUNNY   75  25  15 W18G24    29.91R
HOUSTON INT    PTSUNNY   76  66  71 S9        29.97S
LUBBOCK        CLOUDY    74  55  51 S29G37    29.84F
SAN ANGELO     SUNNY     83  59  44 S23G29    29.87S
SAN ANTONIO    MOSUNNY   80  64  58 SE9       29.93S
WACO           SUNNY     79  64  60 S10       29.93S
WICHITA FALLS  NOT AVBL
$$
...OTHER LOCATIONS IN NEW MEXICO...

CITY           SKY/WX    TMP DP  RH WIND       PRES   REMARKS
ALAMAGORDO     MOSUNNY   73  25  16 W17G29    29.92S
ALBUQUERQUE    MOSUNNY   66  25  21 W18       29.89S
CANNON AFB     PTSUNNY   73  46  38 SW23G29   29.82F
CLOVIS         CLOUDY    70  48  46 S22       29.85F
HOLLOMAN AFB   MOSUNNY   75  26  16 SW14G25   29.89S
ROSWELL        PTSUNNY   74  46  36 S16       29.82F
RUIDOSO        MOSUNNY   63  19  19 SW22G30   29.99F
SANTA FE       SUNNY     65  23  20 SW15G25   29.90S
TRUTH OR CONSE SUNNY     71  23  16 SE13G22   29.88F
TUCUMCARI      CLOUDY    73  45  36 SW26G38   29.77S
$$

USA.gov is the U.S. government's official web portal to all federal, state and local government web resources and services.